This is the latest recevied weather packets stored in our database for station/object N6SPP. If no packets are shown the sender has not sent any weather packets the latest 1 day(s).
| Time | Temp. | Humidity | Pressure | Rain* | Wind** | Luminosity | Snow |
|---|---|---|---|---|---|---|---|
| 1777995597 | 12.22° C | 89% | 1017.4 hPa | 0 mm | 1.79 m/s, 205° | 48 W/m² | - |
| 1777995295 | 12.22° C | 89% | 1017.4 hPa | 0 mm | 0.89 m/s, 202° | 42 W/m² | - |
| 1777994992 | 12.78° C | 88% | 1017.1 hPa | 0 mm | 0.45 m/s, 226° | 45 W/m² | - |
| 1777994689 | 12.78° C | 87% | 1017.2 hPa | 0 mm | 0.89 m/s, 195° | 41 W/m² | - |
| 1777994384 | 12.78° C | 87% | 1017.2 hPa | 0 mm | 1.34 m/s, 226° | 39 W/m² | - |
| 1777994080 | 12.78° C | 86% | 1017.2 hPa | 0 mm | 1.79 m/s, 231° | 39 W/m² | - |
| 1777993777 | 12.78° C | 86% | 1017.1 hPa | 0 mm | 0.89 m/s, 159° | 32 W/m² | - |
| 1777993474 | 12.78° C | 86% | 1017.1 hPa | 0 mm | 2.68 m/s, 171° | 31 W/m² | - |
| 1777993173 | 12.78° C | 86% | 1016.9 hPa | 0 mm | 0.89 m/s, 359° | 38 W/m² | - |
| 1777992872 | 12.78° C | 85% | 1016.8 hPa | 0 mm | 1.79 m/s, 227° | 44 W/m² | - |
| 1777992570 | 12.78° C | 85% | 1016.9 hPa | 0 mm | 2.68 m/s, 154° | 42 W/m² | - |
| 1777992267 | 12.78° C | 85% | 1016.8 hPa | 0 mm | 3.58 m/s, 227° | 43 W/m² | - |
| 1777991965 | 12.78° C | 85% | 1016.7 hPa | 0 mm | 3.13 m/s, 244° | 54 W/m² | - |
| 1777991662 | 12.78° C | 85% | 1016.5 hPa | 0 mm | 1.79 m/s, 232° | 69 W/m² | - |
| 1777991359 | 12.22° C | 86% | 1016.7 hPa | 0 mm | 1.34 m/s, 232° | 51 W/m² | - |
| 1777991056 | 12.22° C | 86% | 1016.5 hPa | 0 mm | 1.79 m/s, 214° | 45 W/m² | - |
| 1777990753 | 12.22° C | 85% | 1016.5 hPa | 0 mm | 1.79 m/s, 164° | 41 W/m² | - |
| 1777990451 | 12.22° C | 85% | 1016.4 hPa | 0 mm | 1.34 m/s, 192° | 32 W/m² | - |
| 1777990148 | 12.22° C | 86% | 1016.5 hPa | 0 mm | 1.34 m/s, 220° | 28 W/m² | - |
| 1777989844 | 12.22° C | 85% | 1016.5 hPa | 0 mm | 2.24 m/s, 143° | 25 W/m² | - |
| 1777989541 | 12.22° C | 85% | 1016.4 hPa | 0 mm | 2.68 m/s, 193° | 29 W/m² | - |
| 1777989238 | 12.22° C | 85% | 1016.7 hPa | 0 mm | 1.34 m/s, 227° | 28 W/m² | - |
| 1777988934 | 12.22° C | 85% | 1016.4 hPa | 0 mm | 1.79 m/s, 196° | 18 W/m² | - |
| 1777988630 | 12.22° C | 85% | 1016.4 hPa | 0 mm | 2.24 m/s, 215° | 13 W/m² | - |
| 1777988327 | 12.22° C | 85% | 1016.5 hPa | 0 mm | 1.34 m/s, 315° | 12 W/m² | - |
* Rain latest hour (hover to see other rain measurements)
** Current wind speed in m/s (hover to see current wind gust speed)